Change the Weather History Date:

Sunday, September 15, 2013

  Actual Average Record
Temperature  
Mean Temperature 65 °F 66 °F  
Max Temperature 71 °F 79 °F 97 °F (1955)
Min Temperature 58 °F 53 °F 33 °F (1916)
Degree Days  
Heating Degree Days 0 3  
Month to date heating degree days 1 27  
Since 1 July heating degree days 4 37  
Cooling Degree Days 0 4  
Month to date cooling degree days 138 77  
Year to date cooling degree days 1201 991  
Growing Degree Days 14 (Base 50)    
Moisture  
Dew Point 59 °F    
Average Humidity 76    
Maximum Humidity 93    
Minimum Humidity 59    
Precipitation  
Precipitation 0.17 in 0.08 in 1.37 in (2006)
Month to date precipitation 1.51 1.15  
Year to date precipitation 20.92 21.92  
Snow  
Snow 0.00 in 0.00 in - ()
Month to date snowfall 0.0 0.0  
Since 1 July snowfall 0.0 0.0  
Since 1 September snowfall 0.0 0.0  
Snow Depth 0.00 in    
Sea Level Pressure  
Sea Level Pressure 30.05 in    
Wind  
Wind Speed 11 mph (NNE)    
Max Wind Speed 18 mph    
Max Gust Speed 25 mph    
Visibility 10 miles    
Events Rain , Thunderstorm    
T = Trace of Precipitation, MM = Missing Value Source: NWS Daily Summary

Daily Weather History Graph

Daily Weather History Graph

Search for Another Location

Airport or City:

Trip Planner

Search our weather history database for the weather conditions in past years. The results will help you decide how hot, cold, wet, or windy it might be!

Date:

Astronomy

Sep. 15, 2013 Rise Set
Actual Time 7:14 AM CDT 7:41 PM CDT
Civil Twilight 6:46 AM CDT 8:09 PM CDT
Nautical Twilight 6:13 AM CDT 8:41 PM CDT
Astronomical Twilight 5:40 AM CDT 9:15 PM CDT
Moon 5:11 PM CDT (9/15) 2:52 AM CDT (9/15)
Length of Visible Light 13h 22m
Length of Day
12h 27m
Waxing Gibbous, 82% of the Moon is Illuminated
Sep 15
Waxing Gibbous
Sep 19
Full
Sep 26
Last Quarter
Oct 4
New
Oct 11
First Quarter

Hourly Weather History & Observations

Time (CDT) Temp. Dew Point Humidity Pressure Visibility Wind Dir Wind Speed Gust Speed Precip Events Conditions
12:53 AM 68.0 °F 63.0 °F 84% 29.84 in 10.0 mi South 5.8 mph - N/A   Partly Cloudy
1:53 AM 68.0 °F 63.0 °F 84% 29.84 in 10.0 mi South 5.8 mph - N/A   Partly Cloudy
2:14 AM 69.8 °F 64.4 °F 83% 29.89 in 10.0 mi SW 9.2 mph - N/A Thunderstorm Mostly Cloudy
2:53 AM 70.0 °F 64.0 °F 81% 29.86 in 10.0 mi SW 9.2 mph - N/A   Scattered Clouds
3:43 AM 69.8 °F 64.4 °F 83% 29.89 in 10.0 mi WSW 9.2 mph - 0.00 in Rain , Thunderstorm Light Rain
3:53 AM 70.0 °F 64.9 °F 84% 29.86 in 10.0 mi WSW 8.1 mph - 0.00 in Thunderstorm Overcast
4:26 AM 68.0 °F 66.2 °F 94% 29.93 in 2.0 mi NNW 11.5 mph - 0.14 in Rain Rain
4:34 AM 66.2 °F 64.4 °F 94% 29.90 in 8.0 mi North 13.8 mph - 0.14 in Rain Light Rain
4:53 AM 68.0 °F 64.9 °F 90% 29.87 in 10.0 mi NW 15.0 mph - 0.16 in Rain Light Rain
5:53 AM 66.0 °F 63.0 °F 90% 29.92 in 10.0 mi North 9.2 mph - 0.01 in   Mostly Cloudy
6:21 AM 64.4 °F 60.8 °F 88% 29.98 in 10.0 mi North 9.2 mph - 0.00 in Rain Light Rain
6:53 AM 63.0 °F 61.0 °F 93% 29.95 in 10.0 mi North 12.7 mph - 0.00 in   Overcast
7:53 AM 62.1 °F 59.0 °F 90% 30.00 in 10.0 mi North 18.4 mph 21.9 mph N/A   Mostly Cloudy
8:01 AM 62.6 °F 57.2 °F 82% 30.03 in 10.0 mi North 16.1 mph 25.3 mph N/A   Mostly Cloudy
8:53 AM 62.1 °F 57.9 °F 86% 30.01 in 10.0 mi North 12.7 mph - N/A   Overcast
9:40 AM 62.6 °F 59.0 °F 88% 30.06 in 10.0 mi NNE 12.7 mph - 0.00 in Rain Light Rain
9:53 AM 62.1 °F 59.0 °F 90% 30.04 in 10.0 mi NNE 12.7 mph - 0.00 in Rain Light Rain
10:53 AM 62.1 °F 59.0 °F 90% 30.07 in 10.0 mi North 12.7 mph 19.6 mph 0.00 in   Overcast
11:32 AM 62.6 °F 59.0 °F 88% 30.10 in 10.0 mi North 13.8 mph 23.0 mph 0.00 in Rain Light Rain
11:48 AM 62.6 °F 59.0 °F 88% 30.11 in 10.0 mi NNE 12.7 mph 20.7 mph 0.00 in Rain Light Rain
11:53 AM 62.1 °F 57.9 °F 86% 30.09 in 10.0 mi NNE 16.1 mph 23.0 mph 0.00 in   Overcast
12:53 PM 62.1 °F 57.0 °F 84% 30.11 in 10.0 mi NNE 13.8 mph - N/A   Overcast
1:11 PM 64.4 °F 57.2 °F 77% 30.14 in 10.0 mi NNE 12.7 mph 18.4 mph N/A   Overcast
1:53 PM 64.9 °F 57.0 °F 75% 30.11 in 10.0 mi North 15.0 mph 18.4 mph N/A   Overcast
2:53 PM 66.0 °F 55.9 °F 70% 30.12 in 10.0 mi NNE 15.0 mph 19.6 mph N/A   Overcast
3:53 PM 68.0 °F 55.0 °F 63% 30.12 in 10.0 mi NE 11.5 mph 18.4 mph N/A   Mostly Cloudy
4:00 PM 68.0 °F 55.4 °F 64% 30.15 in 10.0 mi NNE 11.5 mph - N/A   Scattered Clouds
4:53 PM 68.0 °F 54.0 °F 61% 30.12 in 10.0 mi NE 13.8 mph - N/A   Scattered Clouds
5:53 PM 66.9 °F 55.0 °F 66% 30.14 in 10.0 mi NE 8.1 mph - N/A   Mostly Cloudy
6:53 PM 66.9 °F 55.0 °F 66% 30.17 in 10.0 mi ENE 9.2 mph - N/A   Mostly Cloudy
7:53 PM 64.9 °F 55.0 °F 70% 30.19 in 10.0 mi NE 11.5 mph - N/A   Overcast
8:53 PM 62.1 °F 54.0 °F 75% 30.22 in 10.0 mi NE 9.2 mph - N/A   Mostly Cloudy
9:53 PM 60.1 °F 55.0 °F 83% 30.23 in 10.0 mi NE 5.8 mph - N/A   Mostly Cloudy
10:53 PM 59.0 °F 55.0 °F 87% 30.25 in 10.0 mi NE 5.8 mph - N/A   Overcast
11:06 PM 59.0 °F 55.4 °F 88% 30.27 in 10.0 mi NE 4.6 mph - N/A   Overcast
11:53 PM 60.1 °F 55.0 °F 83% 30.27 in 10.0 mi NE 5.8 mph - N/A   Overcast